Flag for Brazil Weather past 2 weeks in Campinas, São Paulo, Brazil

Now
63 °F

Light rain. Fog.


Feels Like: 63 °F
Forecast: 61 / 68 °F
Wind: 5 mph from West

Location: Campinas Aeroporto

Current Time: Jul 7, 2015 at 8:38:40 AM

Latest Report: Jul 7, 2015 at 8:00 AM


Visibility: 2 mi

Pressure: 30.15 "Hg (27.81 "Hg at 686m altitude)

Humidity: 94%

Dew point: 61 °F

Location of CampinasLocation

Historic Weather in Campinas — Graph

°F

Campinas temperature yesterday

Maximum temperature yesterday: 77 °F (at 4:00 PM)
Minimum temperature yesterday: 55 °F (at 12:00 AM)
Average temperature yesterday: 64 °F

Past Weeks' High & Low Weather Summary

 TemperatureHumidityPressure
High79 °F (Jun 22, 3:00 PM)100% (Jul 1, 7:00 AM)30.48 "Hg (Jul 1, 7:00 AM)
Low52 °F (Jun 27, 5:00 AM)31% (Jun 27, 4:00 PM)29.98 "Hg (Jul 3, 4:00 PM)
Average63 °F75%30.22 "Hg
* Reported Jun 22 7:00 AM — Jul 7 7:00 AM, Campinas, Weather by CustomWeather, © 2015

Note: Actual official high and low records may vary slightly from our data, if they occured in-between our weather recording intervals... More about our weather records

Advertising

Campinas weather history for previous 24 hours

 ConditionsComfort  
Time TempWeatherWind HumidityBarometerVisibility
7:00 AM
Tue, Jul 7
61 °FPartly sunny.1 mph94%30.15 "Hg5 mi
6:00 AM61 °FScattered clouds.6 mph94%30.12 "HgN/A
5:00 AM61 °FPassing clouds.2 mph94%30.12 "HgN/A
4:00 AM61 °FPassing clouds.7 mph94%30.12 "HgN/A
3:00 AM63 °FPassing clouds.7 mph88%30.12 "HgN/A
2:00 AM63 °FPassing clouds.6 mph88%30.12 "HgN/A
1:00 AM63 °FClear.7 mph88%30.15 "Hg10 mi
12:00 AM63 °FClear.6 mph88%30.15 "Hg10 mi
11:00 PM
Mon, Jul 6
64 °FClear.5 mph83%30.15 "Hg10 mi
10:00 PM64 °FClear.5 mph83%30.15 "Hg10 mi
9:00 PM66 °FClear.6 mph83%30.12 "Hg10 mi
8:00 PM68 °FClear.7 mph78%30.09 "Hg10 mi
7:00 PM72 °FClear.3 mph65%30.09 "Hg10 mi
6:00 PM72 °FClear.2 mph65%30.09 "Hg10 mi
5:00 PM73 °FClear.3 mph61%30.09 "Hg10 mi
4:00 PM77 °FSunny.5 mph54%30.09 "Hg10 mi
3:00 PM75 °FSunny.5 mph57%30.09 "Hg10 mi
2:00 PM75 °FSunny.5 mph57%30.09 "Hg10 mi
1:00 PM73 °FSunny.6 mph57%30.12 "Hg10 mi
12:00 PM70 °FSunny.7 mph60%30.15 "Hg10 mi
11:00 AM68 °FSunny.7 mph64%30.15 "Hg10 mi
10:00 AM63 °FSunny.9 mph73%30.18 "Hg10 mi
9:00 AM59 °FSunny.9 mph77%30.18 "Hg10 mi
8:00 AM57 °FSunny.12 mph77%30.18 "Hg10 mi
Weather by CustomWeather, © 2015

See weather overviewHow to use our weather pages